OPS 4682 DEB, 18268

Orbit data source: Space-Track

OPS 4682 DEB, 18268 is space debris in LEO originally from a launch on Sat, 03 Apr 1965 UTC launched from the Air Force Western Test Range (AFWTR). Debris objects in space refer to the collection of defunct objects orbiting the Earth. Examples of debris include non-operational satellites, rocket bodies, and fragments generated from explosions, collisions, or faulty payload assembly.

Loading next visibility...
Identifier
18268, 1965-027X
Orbit
LEO
Country
Flag of USUS
Related business
Manufacturer
Unknown
Mission
Spacecraft
Bus & Motor
Unknown
Mass
Unknown
Launch date (UTC)
1965-04-03 (61 years ago)
Launch vehicle
Unknown
Launch site
Air Force Western Test Range (AFWTR)
Object type
Payload
Rocket body
Debris
Shape & HBR
Unknown shape, 0.1 m
Radar Cross Section
Medium (>0.1 m² and <1 m²)

Expand to show TLE details & history
Last TLE update: 6 days ago

TLE from 6 days ago
0 OPS 4682 DEB
1 18268U 65027X   26169.78091428  .00000182  00000-0  59681-3 0  9991
2 18268  90.2421   4.7674 0035580  60.0842 300.3805 12.97745104662142
Epoch: 2026-06-18T18:44Z
TLE epoch observation values (Epoch: 2026-06-18T18:44:30.993Z)
Latitude
-0.00005°
Longitude
176.61894°
Altitude
1,260.12 km
Speed
7.232 km/s
True Right ascension
00h 19m 04s
True Declination
0° 00' 00"
Sunlit
Object was in daylight at epoch
Visualization orbit readout
Latitude
Unknown
Longitude
Unknown
Altitude
Unknown
Speed
Unknown
Apparent Right ascension
Unknown
Apparent Declination
Unknown
Sunlit
N/A
Visualization observer readout
Local Sidereal Time
08:05:06
Azimuth
Unknown
Elevation
Unknown
Doppler factor
Unknown
Orbital elements
Apogee altitude
1,295.27 km
Perigee altitude
1,240.859 km
Semi-major axis
7,646.202 km
Eccentricity
0.00356
Inclination
90.2421°
RAAN
4.7674°
Arg. of periapsis
60.0842°
True anomaly
300.02798°
Mean anomaly
300.3805°
Eccentric anomaly
300.20432°
Mean motion
3.24619 °/min
Orbital period
110.9 mins
BSTAR
0.00059681
Loading maneuver chart data...
Computing Atmospheric mass density...
Loading historical data...
Loading historical data...
Loading historical data...
Loading historical data...
Loading historical data...
Loading historical data...
Loading historical data...

Documentation

Showing up to 5 results
|